SCP
0 0 0 0 0 0 0 0 0 0 0 0 0 0 0 0 0 0 0 0 0 0 1 1 1 1 1 0 0 0 0 0 0 0 0 0 0 0 0 0 0 0 0 0 0 0 0 0 0
0 0 0 0 0 0 0 0 0 0 0 0 0 0 0 0 0 0 0 0 0 0 1 1 1 1 1 0 0 0 0 0 0 0 0 0 0 0 0 0 0 0 0 0 0 0 0 0 0
0 0 0 0 0 0 0 0 0 0 0 0 0 0 0 0 0 0 0 0 0 0 1 1 1 1 1 1 1 0 0 0 0 0 0 0 0 0 0 0 0 0 0 0 0 0 0 0 0
0 0 0 0 0 0 0 0 0 0 0 0 0 0 0 0 0 0 0 0 0 0 1 1 1 1 1 1 1 1 1 0 0 0 0 0 0 0 0 0 0 0 0 0 0 0 0 0 0
0 0 0 0 0 0 0 0 0 0 0 0 0 0 0 0 0 0 0 0 0 0 1 1 1 1 1 1 1 1 1 0 0 0 0 0 0 0 0 0 0 0 0 0 0 0 0 0 0
0 0 0 0 0 0 0 0 0 0 0 0 0 0 0 0 0 0 0 0 0 1 1 1 1 1 1 1 1 1 1 0 0 0 0 0 0 0 0 0 0 0 0 0 0 0 0 0 0
0 0 0 0 0 0 0 0 0 0 0 0 0 0 0 0 0 0 0 0 1 1 1 1 1 1 1 1 1 1 1 0 0 0 0 0 0 0 0 0 0 0 0 0 0 0 0 0 0
0 0 0 0 0 0 0 0 0 0 0 0 0 0 0 0 0 0 1 1 1 1 1 1 1 1 1 1 1 0 0 0 0 0 0 0 0 0 0 0 0 0 0 0 0 0 0 0 0
0 0 0 0 0 0 0 0 0 0 0 0 0 0 0 0 0 1 1 1 1 1 1 1 1 1 1 0 0 0 0 0 0 0 0 0 0 0 0 0 0 0 0 0 0 0 0 0 0
0 0 0 0 0 0 0 0 0 0 0 0 0 0 0 0 0 1 0 0 0 0 0 1 1 1 1 1 1 1 0 0 0 0 0 0 0 0 0 0 0 0 0 0 0 0 0 0 0
0 0 0 0 0 0 0 0 0 0 0 0 0 0 0 0 0 0 0 0 0 0 0 0 1 1 1 1 1 1 1 1 0 0 0 0 0 0 0 0 0 0 0 0 0 0 0 0 0
0 0 0 0 0 0 0 0 0 0 0 0 0 0 0 0 0 0 0 0 0 0 0 0 0 0 1 1 1 1 1 1 0 0 0 0 0 0 0 0 0 0 0 0 0 0 0 0 0
0 0 0 0 0 0 0 0 0 0 0 0 0 0 0 0 0 0 0 0 0 0 0 0 0 0 0 1 1 1 1 1 1 0 0 0 0 0 0 0 0 0 0 0 0 0 0 0 0
0 0 0 0 0 0 0 0 0 0 0 0 0 0 0 0 0 0 0 0 0 0 0 0 0 0 0 0 1 1 1 1 1 0 0 0 0 0 0 0 0 0 0 0 0 0 0 0 0
0 0 0 0 0 0 0 0 0 0 0 0 0 0 0 0 0 0 0 0 0 0 0 0 0 0 0 0 1 1 1 1 1 0 0 0 0 0 0 0 0 0 0 0 0 0 0 0 0
0 0 0 0 0 0 0 0 0 0 0 0 0 0 0 0 0 0 0 0 0 0 0 0 0 0 0 0 0 1 1 1 1 0 0 0 0 0 0 0 0 0 0 0 0 0 0 0 0
0 0 0 0 0 0 0 0 0 0 0 0 0 0 0 0 0 0 0 0 0 0 0 0 0 0 0 0 0 0 0 0 0 0 0 0 0 0 0 0 0 0 0 0 0 0 0 0 0
0 0 0 0 0 0 0 0 0 0 0 0 0 0 0 0 0 0 0 0 0 0 0 0 0 0 0 0 0 0 0 0 0 0 0 0 0 0 0 0 0 0 0 0 0 0 0 0 0
0 0 0 0 0 0 0 0 0 0 0 0 0 0 0 0 0 0 0 0 0 0 0 0 0 0 0 0 0 0 0 0 0 0 0 0 0 0 0 0 0 0 0 0 0 0 0 0 0
0 0 0 0 0 0 0 0 0 0 0 0 0 0 0 0 0 0 0 0 0 0 0 0 0 0 0 0 0 0 0 0 0 0 0 0 0 0 0 0 0 0 0 0 0 0 0 0 0
0 0 0 0 0 0 0 0 0 0 0 0 0 0 0 0 0 0 0 0 0 0 0 0 0 0 0 0 0 0 0 0 0 0 0 0 0 0 0 0 0 0 0 0 0 0 0 0 0
0 0 0 0 0 0 0 0 0 0 0 0 0 0 0 0 0 0 0 0 0 0 0 0 0 0 0 0 0 0 0 0 0 0 0 0 0 0 0 0 0 0 0 0 0 0 0 0 0
0 0 0 0 0 0 0 0 0 0 0 0 0 0 0 0 0 0 0 0 0 0 0 0 0 0 0 0 0 0 0 0 0 0 0 0 0 0 0 0 0 0 0 0 0 0 0 0 0
0 0 0 0 0 0 0 0 0 0 0 0 0 0 0 0 0 0 0 0 0 0 0 0 0 0 0 0 0 0 0 0 0 0 0 0 0 0 0 0 0 0 0 0 0 0 0 0 0
0 0 0 0 0 0 0 0 0 0 0 0 0 0 0 0 0 0 0 0 0 0 0 0 0 0 0 0 0 0 0 0 0 0 0 0 0 0 0 0 0 0 0 0 0 0 0 0 0
0 0 0 0 0 0 0 0 0 0 0 0 0 0 0 0 0 0 0 0 0 0 0 0 0 0 0 0 0 0 0 0 0 0 0 0 0 0 0 0 0 0 0 0 0 0 0 0 0
0 0 0 0 0 0 0 0 0 0 0 0 0 0 0 0 0 0 0 0 0 0 0 0 0 0 0 0 0 0 0 0 0 0 0 0 0 0 0 0 0 0 0 0 0 0 0 0 0
0 0 0 0 0 0 0 0 0 0 0 0 0 0 0 0 0 0 0 0 0 0 0 0 0 0 0 0 0 0 0 0 0 0 0 0 0 0 0 0 0 0 0 0 0 0 0 0 0
0 0 0 0 0 0 0 0 0 0 0 0 0 0 0 0 0 0 0 0 0 0 0 0 0 0 0 0 0 0 0 0 0 0 0 0 0 0 0 0 0 0 0 0 0 0 0 0 0
0 0 0 0 0 0 0 0 0 0 0 0 0 0 0 0 0 0 0 0 0 0 0 0 0 0 0 0 0 0 0 0 0 0 0 0 0 0 0 0 0 0 0 0 0 0 0 0 0
Wind_Speed
3 2 2 3 5 5 8 5 3 4 3 1 1 2 1 0 1 3 5 2 2 6 9 10 9 10 11 11 11 11 12 12 12 13 12 12 12 12 12 11 11 12 12 13 13 13 14 14 14
3 2 3 4 7 9 7 6 6 4 1 2 2 2 2 1 4 4 3 2 3 6 8 8 9 10 10 10 11 11 12 12 12 12 12 12 12 11 11 11 11 12 12 13 13 13 14 13 13
2 2 3 4 7 9 6 4 4 2 2 2 2 1 0 2 3 3 3 2 5 6 7 8 8 9 9 9 10 10 11 11 11 11 11 11 11 11 11 11 11 12 12 13 13 13 13 13 13
3 3 3 6 10 8 5 3 2 3 4 1 2 3 3 4 4 3 2 4 5 6 7 8 7 8 8 9 9 10 10 10 10 10 10 11 11 11 11 11 11 11 12 12 12 12 12 12 12
2 4 6 8 11 7 5 2 3 4 4 2 2 3 3 4 5 4 3 4 5 6 6 7 7 6 7 8 9 9 9 10 10 9 10 10 11 11 11 11 11 11 12 12 12 12 12 11 11
3 4 8 11 11 8 4 3 4 4 3 2 1 3 3 5 6 3 2 4 5 6 6 7 7 6 5 7 7 8 8 9 9 9 9 9 10 11 11 11 11 11 11 11 11 11 11 11 11
4 5 8 10 9 8 4 3 3 4 3 1 1 2 3 5 5 2 2 3 4 5 5 5 6 5 5 5 7 7 7 8 8 8 8 7 7 9 10 10 10 10 10 10 11 10 10 10 10
2 3 8 9 9 7 3 3 2 2 2 2 0 0 1 4 4 2 3 3 4 4 4 4 4 4 5 5 6 6 6 7 7 8 7 7 7 7 9 9 8 8 9 10 10 10 10 10 10
3 6 9 8 7 5 4 4 1 1 2 3 3 3 4 3 3 3 4 4 4 4 3 3 3 3 3 5 5 5 6 6 7 7 7 6 6 6 6 7 7 8 9 9 10 11 10 9 9
3 7 8 3 2 3 4 3 2 3 3 1 2 4 5 4 4 4 4 3 3 3 3 2 2 2 3 3 4 4 4 5 5 5 6 5 4 4 5 7 7 8 8 9 9 10 9 6 5
3 5 4 1 0 2 3 3 1 4 2 1 1 2 3 4 4 3 3 2 2 2 3 3 1 1 2 2 3 2 2 3 4 5 5 4 4 4 4 4 5 6 7 6 7 7 5 4 4
4 3 2 2 1 2 2 3 2 1 0 2 2 2 2 3 3 2 2 3 2 3 3 3 3 1 1 2 2 2 2 2 3 4 5 4 3 3 3 3 4 4 3 4 4 3 5 5 5
5 4 1 0 1 1 2 2 2 1 1 2 3 4 3 3 2 2 2 2 3 3 3 3 3 2 1 1 1 2 2 3 3 3 4 4 3 4 4 3 3 4 3 4 4 4 5 5 4
2 3 2 1 1 2 2 2 2 1 1 3 4 4 4 4 3 3 4 4 4 3 3 3 3 3 2 0 1 2 2 2 3 3 4 5 3 3 3 3 3 3 3 3 3 5 4 4 4
4 4 3 2 3 3 3 3 2 1 1 3 3 3 4 5 5 4 4 4 4 4 4 3 3 2 2 1 1 1 2 2 2 3 3 4 4 4 4 3 3 3 3 4 3 4 4 3 3
4 6 5 2 1 3 7 5 2 1 2 2 2 3 4 6 7 6 6 5 5 5 4 3 3 3 3 2 1 1 2 2 2 3 3 4 5 5 4 4 3 3 3 4 4 4 4 4 3
3 5 5 3 1 2 4 3 2 1 2 2 2 4 5 6 8 8 8 6 5 5 4 4 3 3 3 3 1 1 1 1 2 3 3 3 5 5 4 4 4 4 4 4 4 3 4 4 4
3 4 5 4 2 2 4 3 1 2 2 3 3 4 5 7 8 9 9 8 7 6 4 3 3 4 3 2 1 0 0 0 1 2 2 3 4 5 5 4 5 5 4 4 4 4 3 3 3
4 4 4 3 1 3 4 3 1 2 3 3 4 6 6 7 7 8 9 9 8 8 7 5 3 3 3 2 1 1 1 1 1 1 2 3 4 4 5 4 5 5 5 5 6 5 5 3 3
3 3 3 2 1 3 4 4 2 2 3 4 5 6 7 7 8 9 10 10 10 8 8 7 5 4 3 3 2 2 2 2 1 1 1 2 3 4 5 6 5 6 5 6 6 6 4 3 4
3 4 3 3 2 4 4 5 4 3 4 5 5 6 7 8 8 9 9 9 9 10 9 7 7 5 4 4 2 1 1 1 1 2 2 2 3 4 4 6 6 6 6 5 7 7 7 5 4
3 3 4 4 4 3 5 4 4 4 2 3 5 6 7 8 8 8 8 9 9 9 9 8 7 6 5 3 2 2 1 2 2 2 2 2 2 3 3 4 6 6 5 6 6 7 6 7 5
3 4 4 4 4 3 4 5 2 3 1 2 4 5 6 7 8 8 8 8 8 9 8 8 7 6 5 4 3 2 2 2 2 2 2 2 2 2 3 3 4 5 5 6 6 6 7 6 6
4 2 3 3 3 4 3 5 2 2 1 3 4 5 6 7 8 8 8 8 8 8 8 8 7 6 6 5 4 3 2 2 2 2 2 2 2 2 2 3 4 5 5 6 7 7 8 7 7
3 1 2 3 3 2 0 3 1 3 3 3 4 5 6 7 8 8 9 9 9 9 9 9 8 7 6 5 4 3 3 3 2 2 3 2 2 2 3 3 3 4 5 6 6 7 7 8 8
3 3 2 3 3 2 1 2 1 2 3 4 3 4 5 7 8 8 9 9 9 9 9 9 8 8 7 5 4 4 3 2 2 3 3 3 3 3 4 4 4 4 5 5 6 6 7 6 8
2 2 3 2 1 3 2 1 2 1 3 4 5 6 7 7 8 8 8 8 9 9 9 9 8 8 7 6 5 4 3 3 3 3 3 3 3 3 4 4 4 4 5 5 5 5 6 7 7
5 1 1 2 2 3 3 3 2 1 3 4 6 7 7 8 9 9 8 8 8 8 9 9 8 8 7 6 5 4 4 3 3 3 3 3 3 3 4 4 3 3 4 5 5 5 6 6 7
3 2 1 1 2 3 4 1 2 1 2 3 5 6 7 8 9 9 8 8 8 8 8 8 8 8 7 6 6 5 4 4 3 3 3 4 4 4 4 4 3 4 4 4 4 5 6 7 7
1 2 2 2 2 3 4 3 3 0 2 3 6 6 7 8 8 8 8 8 8 8 8 8 8 8 7 6 6 5 5 4 4 4 4 4 4 4 4 4 4 4 5 5 5 6 6 6 7
Wind_Direction
318 306 253 222 211 216 225 209 211 178 181 181 175 207 194 181 304 57 42 87 122 149 156 154 144 143 142 141 138 136 134 132 131 129 128 126 123 121 117 113 110 108 107 106 106 103 102 102 99
306 268 220 215 224 217 213 208 207 205 145 143 180 197 170 116 27 41 46 83 140 145 151 149 139 139 136 136 139 139 137 136 134 133 133 130 127 123 119 114 110 108 106 106 105 103 101 101 102
259 269 226 207 221 226 206 178 201 187 166 181 162 117 8 36 39 28 29 137 141 135 142 134 129 135 135 135 135 138 140 139 137 136 135 134 132 128 122 116 110 109 107 106 106 105 103 101 101
226 194 209 222 217 224 224 155 166 174 154 153 167 131 104 48 14 17 77 138 138 136 135 125 117 124 131 132 133 135 135 136 137 138 138 137 135 131 125 118 112 111 110 110 109 109 107 105 103
232 213 203 216 224 214 213 204 194 193 167 138 166 142 115 65 26 46 112 133 135 138 135 129 109 115 121 126 129 132 134 134 132 136 141 140 137 133 127 120 117 117 116 115 114 112 111 109 106
198 214 214 218 216 205 202 213 210 204 184 153 172 156 116 60 31 40 109 130 135 136 133 131 116 104 114 126 123 128 129 131 134 130 130 133 135 133 129 124 122 123 123 121 120 118 115 110 108
221 211 224 222 217 210 196 192 214 212 202 203 258 172 129 44 20 30 97 119 121 121 125 128 139 134 115 116 122 120 121 121 122 124 122 118 120 130 129 126 127 127 127 124 122 121 118 112 107
259 220 220 222 219 213 178 175 197 223 200 45 15 165 81 2 2 50 85 91 104 104 113 124 132 142 150 143 117 116 112 114 116 112 106 105 114 124 127 129 125 128 128 125 123 121 116 110 107
243 225 220 216 215 196 162 176 158 90 137 89 62 35 29 20 49 71 75 65 61 67 73 115 129 133 144 153 132 125 120 114 122 120 110 125 141 140 139 128 119 126 127 125 124 121 116 111 105
222 223 224 223 220 179 160 175 161 162 149 112 67 42 54 65 76 81 75 64 52 40 40 52 103 136 144 146 146 150 151 150 153 150 147 151 144 132 126 113 114 122 123 124 125 125 128 136 129
209 227 216 217 194 183 178 173 190 193 181 194 75 54 65 68 69 66 62 55 46 30 24 12 26 116 140 149 152 155 158 162 162 158 156 152 140 132 132 132 129 135 141 139 137 146 150 143 132
197 218 237 255 237 204 202 176 145 165 204 41 52 78 78 77 68 46 31 20 22 22 13 8 360 9 145 155 162 161 163 163 162 165 160 153 146 148 145 150 150 152 155 152 154 155 148 142 143
211 205 199 143 106 124 145 171 156 116 35 53 65 66 59 59 41 29 13 17 14 10 359 354 352 3 358 160 170 171 174 171 163 168 167 161 159 158 155 157 157 155 152 159 159 157 152 149 145
185 186 199 264 223 211 187 168 176 158 43 78 71 58 45 35 16 7 2 0 356 350 341 338 344 353 344 297 185 179 178 174 171 168 176 171 168 165 164 162 161 159 161 160 165 161 157 154 153
199 197 191 236 234 203 204 180 187 221 121 87 66 48 34 26 16 5 350 347 341 336 328 330 326 339 338 316 238 195 187 185 180 180 186 181 173 172 170 168 167 162 165 164 162 158 155 152 153
209 210 210 198 260 230 233 211 123 54 123 95 62 35 28 25 19 9 356 346 342 337 332 328 325 329 329 311 280 234 201 196 191 187 190 192 183 178 174 173 171 167 168 170 164 166 163 162 166
197 219 222 217 217 235 227 213 109 44 107 85 53 33 27 23 17 8 2 354 344 337 331 326 328 329 321 311 298 284 225 214 205 191 191 195 193 188 182 178 173 172 172 172 168 175 177 172 171
236 237 225 229 212 227 212 206 134 81 85 74 48 33 28 23 15 7 4 2 355 345 339 330 332 335 327 310 288 318 226 260 239 206 205 195 198 193 187 182 179 176 176 176 177 178 176 176 167
244 244 247 248 202 218 209 214 156 107 88 66 45 32 23 17 12 10 10 6 3 2 356 342 339 338 335 325 292 257 254 253 251 231 239 210 200 200 192 184 184 187 187 187 184 176 174 173 169
238 239 262 250 224 235 216 224 157 112 82 67 49 29 14 7 6 7 7 8 5 2 356 351 342 332 328 322 293 261 255 247 260 280 253 239 209 205 203 194 191 192 192 190 188 180 182 181 193
243 248 263 265 280 205 215 216 174 115 91 63 44 27 16 9 2 359 0 3 2 1 354 346 344 337 326 319 303 295 264 258 259 265 262 261 239 216 216 206 202 198 196 195 195 191 191 190 202
261 270 263 246 235 223 221 241 173 166 129 43 26 18 9 3 359 358 355 356 357 354 350 345 342 344 334 321 304 269 243 243 256 258 261 253 238 223 226 221 209 204 202 202 202 201 200 197 200
287 292 248 233 231 252 223 240 181 154 193 357 6 4 358 357 355 353 352 350 351 351 350 348 344 347 340 327 303 271 268 267 258 250 255 256 240 226 228 233 221 215 211 209 208 208 208 208 210
308 247 187 198 214 233 239 235 230 132 283 327 345 353 352 351 352 351 351 352 352 351 352 351 348 347 338 332 323 298 284 273 268 256 245 252 253 246 254 250 232 227 221 213 211 209 212 213 216
350 262 219 214 220 237 106 237 244 49 9 341 337 344 350 351 351 350 352 353 350 349 350 347 346 344 337 334 326 314 304 284 263 258 251 256 261 257 257 257 249 236 233 224 216 213 213 214 215
348 314 294 270 266 300 313 250 89 62 24 4 350 348 351 353 349 346 346 347 345 344 343 343 344 341 335 334 334 323 310 296 286 276 266 254 260 260 266 259 248 248 236 227 220 218 218 218 220
357 35 352 295 296 273 263 267 219 177 358 357 353 352 351 349 344 341 342 343 342 341 340 336 337 336 334 334 332 322 319 316 300 295 283 264 267 269 261 260 251 250 247 232 222 222 223 220 222
12 27 237 241 269 268 270 249 238 257 312 334 341 341 340 341 341 339 339 337 336 336 334 335 337 332 329 334 333 325 321 312 300 298 296 290 277 274 267 260 251 246 249 240 227 227 226 223 222
22 38 335 277 303 274 271 279 59 256 291 315 327 329 332 334 336 335 334 333 333 335 335 336 338 334 332 334 330 326 322 313 300 290 290 291 286 270 264 260 248 242 242 237 229 229 224 224 223
353 339 280 268 251 258 274 287 72 349 318 319 322 325 328 330 333 333 333 334 335 336 334 335 334 331 330 329 323 323 322 316 306 302 300 291 285 280 270 260 249 246 244 239 230 230 226 224 226